Location: Sternwarte_Laufen
(47.9344°N, 12.9346°E)
Time: 10:40:39
(UTC+02:00)

Tiangong 2 - Visible Passes

Search period start: 23 May 2017 00:00
Search period end: 02 June 2017 00:00
Orbit: 380 x 389 km, 42.8° (Epoch: 22 May)

Date Brightness Start Highest point End Pass type
(mag) Time Alt. Az. Time Alt. Az. Time Alt. Az.
23 May 3.1 22:35:29 10° SSW 22:36:25 15° SSW 22:36:25 15° SSW visible
24 May 2.9 21:36:38 10° SSW 21:38:32 15° SSE 21:40:25 10° ESE visible
24 May 3.1 23:11:53 10° WSW 23:12:53 17° SW 23:12:53 17° SW visible
25 May 2.2 22:12:33 10° SW 22:15:15 25° SSE 22:16:35 19° SE visible
25 May 3.8 23:48:43 10° WSW 23:48:49 11° WSW 23:48:49 11° WSW visible
26 May 1.8 22:49:12 10° WSW 22:52:05 32° S 22:52:11 32° S visible
27 May 2.0 21:49:45 10° WSW 21:52:35 30° S 21:55:22 10° ESE visible
27 May 2.9 23:26:09 10° WSW 23:27:34 20° SW 23:27:34 20° SW visible
28 May 2.0 22:26:34 10° WSW 22:29:25 31° S 22:30:37 23° SE visible
29 May 2.7 23:03:40 10° WSW 23:05:47 21° SSW 23:05:47 21° SSW visible
30 May 2.3 22:03:57 10° WSW 22:06:43 27° S 22:08:42 15° SE visible
31 May 3.0 22:41:18 10° WSW 22:43:25 17° SSW 22:43:47 16° SSW visible
01 Jun 2.7 21:41:25 10° WSW 21:43:57 22° SSW 21:46:30 10° SE visible
